Location: Bieg
(49.3499°N, 10.3835°E)
Time: 18:35:21
(UTC+00:00)

Meteor 1-28 Rocket - Pass Details

Date: 19 December 2025
Orbit: 429 x 441 km, 97.6° (Epoch: 12 January)

Event Time Altitude Azimuth Distance (km) Brightness Sun altitude
Exits shadow 17:10:49 - 358° (N) 2,073 6.1 -16.8°
Reaches altitude 10° 17:12:10 10° 349° (N) 1,560 5.6 -17.0°
Maximum altitude 17:14:56 24° 293° (WNW) 941 5.1 -17.4°
Drops below altitude 10° 17:17:40 10° 237° (WSW) 1,541 6.7 -17.8°
Sets 17:19:53 0° 223° (SW) 2,401 7.6 -18.2°
